Tracking 25734 objects as of 26-May-2022
HD Live streaming from Space Station
objects crossing your sky now

SL-16 DEB

Track SL-16 DEB now!
10-day predictions


NORAD ID: 29101
Int'l Code: 1993-016AQ
Perigee: 693.8 km
Apogee: 857.5 km
Inclination: 70.9 °
Period: 100.2 minutes
Semi major axis: 7146 km
RCS: 0.0104 m2 (small)
Launch date: March 26, 1993
Source: Commonwealth of Independent States (former USSR) (CIS)
Launch site: TYURATAM MISSILE AND SPACE COMPLEX (TTMTR)

Note: This is SATELLITE DEBRIS
aabbcc
Your satellite tracking list
Your tracking list is empty




NASA's NSSDC Master Catalog

Two Line Element Set (TLE):
1 29101U 93016AQ  22144.66855321  .00006417  00000-0  20220-2 0  9997
2 29101  70.9282 299.2986 0114515   0.9930 359.1408 14.36976877466606
Source of the keplerian elements: AFSPC